Conditions Actuelle
Plutôt dégagé



Pression
30.21 (inHG) - 1022.92 (mb)
Visibilité

10.0 (km) - 6.2 (miles)
   Température
1  °C
Température
-1  °C
Point de Rosée
87  %
 Humidité
   Vitesse du Vent
11  km/h
6  kts
7  mph
3.1  m/s
   Direction du Vent
N
45°
E
90°
135°
S
180°
225°
O
270°
315°
 20°

Nord Nord
Est
   Données D'Aéroport
LFBU
Angoulême-Brie-Champniers Airport
Metar :LFBU 060630Z AUTO 02006KT CAVOK 01/M01 Q1023 NOSIG
06-03-2021 07:30
   Informations de métar brut
Le METAR brut est le format le plus courant au monde pour la transmission de données météorologiques d'observation. Il est hautement standardisé par l’Organisation de l’aviation civile internationale (OACI), ce qui lui permet d’être compris dans la plupart des pays du monde.
   API Information
Données fournies par
https://www.checkwx.com/weather/LFBU

Météo aéronautique fournissant des rapports météorologiques METAR, TAF, AIRMET, SIGMET et OUTLOOK
   © Info
CSS/SVG/PHP les scripts ont été développés pa weather34.com pour une utilisation dans le modèle weather34 © 2015-2021

Informations sur le guide fournies par Metar-Wikipedia